Trinity Center, CA

8:52 AM PDT on June 26, 2017 (GMT -0700)
Trinity Center

Weather History for KO86 - January, 2014

Change the Weather History Date:

Sunday, January 19, 2014

  Actual Average (KMHS) Record (KMHS)
Temperature  
Mean Temperature 40 °F -  
Max Temperature 55 °F 42 °F 66 °F (1920)
Min Temperature 26 °F 28 °F -5 °F (1922)
Degree Days  
Heating Degree Days 24    
Moisture  
Dew Point 30 °F    
Average Humidity 81    
Maximum Humidity 100    
Minimum Humidity 44    
Precipitation  
Precipitation 0.00 in - - ()
Sea Level Pressure  
Sea Level Pressure 30.20 in    
Wind  
Wind Speed 0 mph (West)    
Max Wind Speed 6 mph    
Max Gust Speed -    
Visibility 10 miles    
Events      
Averages and records for this station are not official NWS values.
T = Trace of Precipitation, MM = Missing Value Source: NWS Daily Summary

Daily Weather History Graph

Daily Weather History Graph

Search for Another Location

Airport or City:

Trip Planner

Search our weather history database for the weather conditions in past years. The results will help you decide how hot, cold, wet, or windy it might be!

Date:

Astronomy

Jan. 19, 2014 Rise Set
Actual Time 7:31 AM PST 5:12 PM PST
Civil Twilight 7:01 AM PST 5:42 PM PST
Nautical Twilight 6:27 AM PST 6:15 PM PST
Astronomical Twilight 5:54 AM PST 6:48 PM PST
Moon 8:57 PM PST (1/19) 9:02 AM PST (1/19)
Length of Visible Light 10h 40m
Length of Day
9h 40m
Waning Gibbous, 89% of the Moon is Illuminated
Jan 19
Waning Gibbous
Jan 23
Last Quarter
Jan 30
New
Feb 6
First Quarter
Feb 14
Full

Hourly Weather History & Observations

Time (PST) Temp. Windchill Dew Point Humidity Pressure Visibility Wind Dir Wind Speed Gust Speed Precip Events Conditions
12:05 AM 32.0 °F - 28.4 °F 87% 30.20 in 10.0 mi Calm Calm - N/A   Clear
12:25 AM 30.2 °F - 28.4 °F 93% 30.19 in 10.0 mi Calm Calm - N/A   Clear
12:45 AM 30.2 °F - 28.4 °F 93% 30.20 in 10.0 mi Calm Calm - N/A   Clear
1:05 AM 30.2 °F - 28.4 °F 93% 30.20 in 10.0 mi Calm Calm - N/A   Clear
1:25 AM 28.4 °F 24.6 °F 26.6 °F 93% 30.20 in 10.0 mi WNW 3.5 mph - N/A   Clear
1:45 AM 28.4 °F - 28.4 °F 100% 30.20 in 10.0 mi Calm Calm - N/A   Clear
2:05 AM 28.4 °F - 26.6 °F 93% 30.20 in 10.0 mi Calm Calm - N/A   Clear
2:25 AM 28.4 °F - 26.6 °F 93% 30.20 in 10.0 mi Calm Calm - N/A   Clear
2:45 AM 28.4 °F - 26.6 °F 93% 30.20 in 10.0 mi Calm Calm - N/A   Clear
3:05 AM 28.4 °F - 26.6 °F 93% 30.20 in 10.0 mi Calm Calm - N/A   Clear
3:25 AM 28.4 °F - 26.6 °F 93% 30.20 in 10.0 mi Calm Calm - N/A   Clear
3:45 AM 28.4 °F - 26.6 °F 93% 30.20 in 10.0 mi Calm Calm - N/A   Clear
4:05 AM 28.4 °F - 26.6 °F 93% 30.20 in 10.0 mi Calm Calm - N/A   Clear
4:25 AM 28.4 °F - 26.6 °F 93% 30.20 in 10.0 mi Calm Calm - N/A   Clear
4:45 AM 28.4 °F - 26.6 °F 93% 30.20 in 10.0 mi Calm Calm - N/A   Clear
5:05 AM 28.4 °F - 26.6 °F 93% 30.21 in 10.0 mi Calm Calm - N/A   Clear
5:25 AM 26.6 °F - 26.6 °F 100% 30.21 in 10.0 mi Calm Calm - N/A   Clear
5:45 AM 26.6 °F 22.6 °F 26.6 °F 100% 30.21 in 10.0 mi West 3.5 mph - N/A   Clear
6:05 AM 26.6 °F - 26.6 °F 100% 30.21 in 10.0 mi Calm Calm - N/A   Clear
6:25 AM 28.4 °F - 26.6 °F 93% 30.21 in 10.0 mi Calm Calm - N/A   Clear
6:45 AM 28.4 °F - 26.6 °F 93% 30.22 in 10.0 mi Calm Calm - N/A   Clear
7:05 AM 28.4 °F - 26.6 °F 93% 30.22 in 10.0 mi Calm Calm - N/A   Clear
7:25 AM 26.6 °F - 26.6 °F 100% 30.23 in 9.0 mi Calm Calm - N/A   Clear
7:45 AM 28.4 °F - 26.6 °F 93% 30.23 in 10.0 mi Calm Calm - N/A   Clear
8:05 AM 28.4 °F - 26.6 °F 93% 30.23 in 10.0 mi Calm Calm - N/A   Clear
8:25 AM 30.2 °F - 28.4 °F 93% 30.23 in 10.0 mi Calm Calm - N/A   Clear
8:45 AM 32.0 °F - 28.4 °F 87% 30.24 in 7.0 mi Calm Calm - N/A   Clear
9:05 AM 32.0 °F - 30.2 °F 93% 30.24 in 10.0 mi Calm Calm - N/A   Clear
9:25 AM 35.6 °F - 32.0 °F 87% 30.25 in 10.0 mi Calm Calm - N/A   Clear
9:45 AM 35.6 °F - 32.0 °F 87% 30.25 in 10.0 mi Calm Calm - N/A   Clear
10:05 AM 37.4 °F 34.9 °F 32.0 °F 81% 30.24 in 10.0 mi ENE 3.5 mph - N/A   Clear
10:25 AM 37.4 °F - 32.0 °F 81% 30.24 in 10.0 mi Calm Calm - N/A   Clear
10:45 AM 39.2 °F - 32.0 °F 75% 30.24 in 10.0 mi Calm Calm - N/A   Clear
11:05 AM 39.2 °F - 32.0 °F 75% 30.24 in 10.0 mi Calm Calm - N/A   Clear
11:25 AM 42.8 °F - 32.0 °F 66% 30.23 in 10.0 mi Calm Calm - N/A   Clear
11:45 AM 44.6 °F - 32.0 °F 61% 30.21 in 10.0 mi Calm Calm - N/A   Clear
12:05 PM 44.6 °F - 35.6 °F 71% 30.20 in 10.0 mi Calm Calm - N/A   Clear
12:25 PM 46.4 °F - 32.0 °F 57% 30.19 in 10.0 mi Calm Calm - N/A   Clear
12:45 PM 48.2 °F - 32.0 °F 54% 30.18 in 10.0 mi Calm Calm - N/A   Clear
1:05 PM 50.0 °F - 32.0 °F 50% 30.17 in 10.0 mi SSE 3.5 mph - N/A   Clear
1:25 PM 50.0 °F - 33.8 °F 54% 30.16 in 10.0 mi Calm Calm - N/A   Clear
1:45 PM 53.6 °F - 32.0 °F 44% 30.15 in 10.0 mi Calm Calm - N/A   Clear
2:05 PM 53.6 °F - 33.8 °F 47% 30.15 in 10.0 mi Calm Calm - N/A   Clear
2:25 PM 53.6 °F - 32.0 °F 44% 30.15 in 10.0 mi Calm Calm - N/A   Clear
2:45 PM 53.6 °F - 32.0 °F 44% 30.15 in 10.0 mi Calm Calm - N/A   Clear
3:05 PM 53.6 °F - 37.4 °F 54% 30.15 in 10.0 mi Calm Calm - N/A   Clear
3:25 PM 55.4 °F - 33.8 °F 44% 30.15 in 10.0 mi Calm Calm - N/A   Clear
3:45 PM 50.0 °F - 39.2 °F 66% 30.15 in 10.0 mi Calm Calm - N/A   Clear
4:05 PM 48.2 °F - 37.4 °F 66% 30.16 in 10.0 mi Calm Calm - N/A   Clear
4:25 PM 50.0 °F - 37.4 °F 62% 30.16 in 10.0 mi Calm Calm - N/A   Clear
4:45 PM 46.4 °F - 37.4 °F 71% 30.16 in 10.0 mi Calm Calm - N/A   Clear
5:05 PM 44.6 °F - 37.4 °F 76% 30.16 in 8.0 mi Calm Calm - N/A   Clear
5:25 PM 42.8 °F - 37.4 °F 81% 30.16 in 9.0 mi Calm Calm - N/A   Clear
5:45 PM 41.0 °F 39.0 °F 37.4 °F 87% 30.17 in 10.0 mi West 3.5 mph - N/A   Clear
6:05 PM 41.0 °F 37.1 °F 35.6 °F 81% 30.18 in 10.0 mi West 5.8 mph - N/A   Clear
6:25 PM 39.2 °F - 35.6 °F 87% 30.18 in 10.0 mi Calm Calm - N/A   Clear
6:45 PM 37.4 °F - 33.8 °F 87% 30.19 in 10.0 mi Calm Calm - N/A   Clear
7:05 PM 37.4 °F - 32.0 °F 81% 30.20 in 10.0 mi Calm Calm - N/A   Clear
7:25 PM 35.6 °F - 32.0 °F 87% 30.20 in 10.0 mi Calm Calm - N/A   Clear
7:45 PM 35.6 °F 31.7 °F 32.0 °F 87% 30.20 in 10.0 mi West 4.6 mph - N/A   Clear
8:05 PM 35.6 °F - 30.2 °F 81% 30.21 in 10.0 mi Calm Calm - N/A   Clear
8:25 PM 35.6 °F 32.8 °F 30.2 °F 81% 30.21 in 5.0 mi West 3.5 mph - N/A   Clear
8:45 PM 32.0 °F - 30.2 °F 93% 30.22 in 9.0 mi Calm Calm - N/A   Clear
9:05 PM 32.0 °F 28.7 °F 28.4 °F 87% 30.22 in 10.0 mi West 3.5 mph - N/A   Clear
9:25 PM 32.0 °F - 28.4 °F 87% 30.23 in 7.0 mi Calm Calm - N/A   Clear
9:45 PM 32.0 °F - 28.4 °F 87% 30.23 in 10.0 mi Calm Calm - N/A   Clear
10:05 PM 32.0 °F - 28.4 °F 87% 30.23 in 10.0 mi Calm Calm - N/A   Clear
10:25 PM 32.0 °F 28.7 °F 28.4 °F 87% 30.24 in 10.0 mi West 3.5 mph - N/A   Clear
10:45 PM 32.0 °F - 28.4 °F 87% 30.25 in 10.0 mi Calm Calm - N/A   Clear
11:05 PM 32.0 °F - 28.4 °F 87% 30.25 in 10.0 mi Calm Calm - N/A   Clear
11:25 PM 30.2 °F - 28.4 °F 93% 30.25 in 10.0 mi Calm Calm - N/A   Clear
11:45 PM 30.2 °F - 26.6 °F 86% 30.25 in 8.0 mi Calm Calm - N/A   Clear